Back to catalog

STARLINK-34537

AliveCommunicationsVLEO
NORAD 64778·PAYLOAD·🇺🇸 United States

Launched Jul 8, 2025 from Cape Canaveral Space Force Station

Loading…

Next Passes (next 24 hours)

TLE

FreshSource: CelesTrak SupGP

Epoch: Sep 14, 2026, 21:37 UTC

1 64778C 25147Z   26257.90118056  .00025251  00000+0  74635-3 0  2572
2 64778  53.1595  59.5474 0001168  80.1928 121.4697 15.34365845    15

Track STARLINK-34537 in real time with AllMySat

Download on the App Store